Tiempo Historia de Leticia, Colombia

Change the Weather History Date:

Jueves, Marzo 22, 2012

  Actual Average Record
Temperature  
Temperatura media 80 ° F -  
Temperatura máxima 90 ° F 84 ° F 93 ° F (2003)
Temperatura mínima 71 ° F 72 ° F 71 ° F (2003)
Cooling Degree Days 16    
Growing Degree Days 30 (Base 50)    
Moisture  
Punto de rocío 76 ° F    
Average Humidity 87    
Maximum Humidity 100    
Minimum Humidity 65    
Precipitación  
Precipitación 0.04 pul 0.46 pul - ()
Presión al nivel del mar  
Presión al nivel del mar 29.83 pul    
Viento  
Velocidad del viento 2 mph ()    
Velocidad máxima del viento 9 mph    
Max Gust Speed -    
Visibilidad 6.8 Millas    
Eventos      
Averages and records for this station are not official NWS values.
T = Trace of Precipitation, MM = Missing Value Source: Averaged Metar Reports

Daily Weather History Graph

Daily Weather History Graph

Search for Another Location

Airport:

Trip Planner

Search our weather history database for the weather conditions in past years. The results will help you decide how hot, cold, wet, or windy it might be!

Date:

Astronomía

Mar. 22, 2012 Salida Puesta
Hora real 5:43 AM COT 5:49 PM COT
Crepúsculo civil 5:22 AM COT 6:10 PM COT
Crepúsculo náutico 4:58 AM COT 6:34 PM COT
Crepúsculo astronómico 4:34 AM COT 6:58 PM COT
Luna 5:33 AM COT (3/22) 5:50 PM COT (3/22)
Horas de luz 12h 47m
Horas de luz
12h 05m
Luna nueva, 0% of the Moon is Illuminated
Mar 22
Luna nueva
Mar 30
Cuarto creciente
Abr 6
Luna llena
Abr 13
Cuarto menguante
Abr 21
Nueva

Hourly Weather History & Observations

Hora (COT) Temp. Índice de calor Punto de rocío Humedad Presión Visibilidad Wind Dir Velocidad del viento Velocidad de ráfagas Precip Eventos Condiciones
12:00 AM 73.4 ° F - 73.4 ° F 100% 29.87 pul 6.2 mi Sin viento Sin viento - N/A   Muy nublado
1:00 AM 73 ° F - 72 ° F 95% 29.87 pul 9 mi Sin viento Sin viento - -   Nublado
3:00 AM 71.6 ° F - 71.6 ° F 100% 29.83 pul 6.2 mi Sin viento Sin viento - N/A   Nublado
4:00 AM 72 ° F - 72 ° F 99% 29.84 pul 9 mi Sin viento Sin viento - -   Parcialmente nublado
4:00 AM 71.6 ° F - 71.6 ° F 100% 29.84 pul 6.2 mi Sin viento Sin viento - N/A   Muy nublado
6:00 AM 71.6 ° F - 71.6 ° F 100% 29.85 pul 6.2 mi Sin viento Sin viento - N/A   Muy nublado
7:00 AM 74 ° F - 73 ° F 96% 29.88 pul 5 mi Sin viento Sin viento - -   Nublado
7:00 AM 73.4 ° F - 73.4 ° F 100% 29.87 pul 5.0 mi Sin viento Sin viento - N/A   Muy nublado
8:00 AM 75.2 ° F - 73.4 ° F 94% 29.89 pul 6.2 mi Sin viento Sin viento - N/A   Muy nublado
9:00 AM 77.0 ° F - 75.2 ° F 94% 29.91 pul 6.2 mi Variable 2.3 mph - N/A   Nubes dispersas
10:00 AM 82 ° F - 76 ° F 78% 29.91 pul 12 mi Norte 4.5 mph - -   Parcialmente nublado
10:00 AM 82.4 ° F 90.9 ° F 77.0 ° F 84% 29.91 pul 6.2 mi Norte 3.5 mph - N/A   Muy nublado
11:00 AM 84.2 ° F 94.1 ° F 77.0 ° F 79% 29.88 pul 6.2 mi ONO 4.6 mph - N/A   Nubes dispersas
12:00 PM 86.0 ° F 96.9 ° F 77.0 ° F 74% 29.87 pul 6.2 mi Oeste 3.5 mph - N/A   Nubes dispersas
1:00 PM 88 ° F - 79 ° F 69% 29.84 pul 12 mi OSO 4.5 mph - -   Parcialmente nublado
1:00 PM 87.8 ° F 102.5 ° F 78.8 ° F 75% 29.84 pul 6.2 mi OSO 4.6 mph - N/A   Nubes dispersas
2:00 PM 87.8 ° F 102.5 ° F 78.8 ° F 75% 29.79 pul 6.2 mi Oeste 5.8 mph - N/A   Nubes dispersas
3:00 PM 89.6 ° F 104.7 ° F 78.8 ° F 70% 29.79 pul 6.2 mi OSO 3.5 mph - N/A   Nubes dispersas
4:00 PM 90 ° F - 80 ° F 65% 29.72 pul 12 mi OSO 2.2 mph - -   Parcialmente nublado
4:00 PM 89.6 ° F 108.2 ° F 80.6 ° F 75% 29.71 pul 6.2 mi Variable 2.3 mph - N/A   Nubes dispersas
5:00 PM 87.8 ° F 102.5 ° F 78.8 ° F 75% 29.71 pul 6.2 mi Sin viento Sin viento - N/A   Nubes dispersas
6:00 PM 86.0 ° F 99.3 ° F 78.8 ° F 79% 29.73 pul 6.2 mi Sin viento Sin viento - N/A   Muy nublado
7:00 PM 82 ° F - 79 ° F 87% 29.75 pul 7 mi Sin viento Sin viento - -   Parcialmente nublado
7:00 PM 82.4 ° F 92.4 ° F 78.8 ° F 89% 29.75 pul 6.2 mi Sin viento Sin viento - N/A   Muy nublado
8:00 PM 78.8 ° F - 78.8 ° F 100% 29.78 pul 5.6 mi SSE 6.9 mph - N/A   Muy nublado
9:00 PM 77.0 ° F - 75.2 ° F 94% 29.80 pul 6.2 mi Norte 6.9 mph - N/A   Nubes dispersas
10:00 PM 77 ° F - 75 ° F 90% 29.84 pul 5 mi NE 8.9 mph - -   Nublado
10:00 PM 77.0 ° F - 75.2 ° F 94% 29.84 pul 5.0 mi NE 4.6 mph - N/A   Nubes dispersas
11:00 PM 75.2 ° F - 75.2 ° F 100% 29.85 pul 4.3 mi NE 4.6 mph - N/A   Nubes dispersas